This is the latest recevied weather packets stored in our database for station/object W0DXV. If no packets are shown the sender has not sent any weather packets the latest 10 day(s).
| Time | Temp. | Humidity | Pressure | Rain* | Wind** | Luminosity | Snow |
|---|---|---|---|---|---|---|---|
| 1776978320 | 28.33° C | 29% | 1009.7 hPa | 0 mm | - | 67 W/m² | - |
| 1776978017 | 28.33° C | 30% | 1009.8 hPa | 0 mm | - | 61 W/m² | - |
| 1776977715 | 28.33° C | 31% | 1009.8 hPa | 0 mm | - | 63 W/m² | - |
| 1776977410 | 28.89° C | 32% | 1009.9 hPa | 0 mm | - | 68 W/m² | - |
| 1776977107 | 29.44° C | 28% | 1009.8 hPa | 0 mm | - | 165 W/m² | - |
| 1776976803 | 29.44° C | 28% | 1009.8 hPa | 0 mm | - | 412 W/m² | - |
| 1776976497 | 29.44° C | 29% | 1010 hPa | 0 mm | - | 430 W/m² | - |
| 1776976192 | 29.44° C | 30% | 1010 hPa | 0 mm | - | 449 W/m² | - |
| 1776975889 | 30° C | 28% | 1010 hPa | 0 mm | - | 461 W/m² | - |
| 1776975580 | 30° C | 30% | 1010 hPa | 0 mm | - | 488 W/m² | - |
| 1776975278 | 30.56° C | 28% | 1010.4 hPa | 0 mm | - | 514 W/m² | - |
| 1776974974 | 30° C | 27% | 1010.3 hPa | 0 mm | - | 508 W/m² | - |
| 1776974672 | 30° C | 29% | 1010.5 hPa | 0 mm | - | 515 W/m² | - |
| 1776974369 | 30.56° C | 27% | 1010.5 hPa | 0 mm | - | 538 W/m² | - |
| 1776974066 | 30° C | 26% | 1010.6 hPa | 0 mm | - | 534 W/m² | - |
| 1776973763 | 30° C | 27% | 1010.7 hPa | 0 mm | - | 547 W/m² | - |
| 1776973461 | 30° C | 28% | 1010.9 hPa | 0 mm | - | 553 W/m² | - |
| 1776973158 | 30° C | 27% | 1010.9 hPa | 0 mm | - | 573 W/m² | - |
| 1776972854 | 30° C | 27% | 1010.9 hPa | 0 mm | - | 580 W/m² | - |
| 1776972549 | 29.44° C | 28% | 1011.1 hPa | 0 mm | - | 591 W/m² | - |
| 1776972249 | 29.44° C | 29% | 1011.2 hPa | 0 mm | - | 598 W/m² | - |
* Rain latest hour (hover to see other rain measurements)
** Current wind speed in m/s (hover to see current wind gust speed)